Location: Unspecified
(0.0000°N, 0.0000°E)
Time: 03:19:41
(UTC+00:00)

STARLINK-2035 - Pass Details

Date: 24 February 2021
Orbit: 316 x 317 km, 53.1° (Epoch: 23 February)

Event Time Altitude Azimuth Distance (km) Brightness Sun altitude
Exits shadow 05:19:59 - 349° (NNW) 1,643 5.8 -13.1°
Reaches altitude 10° 05:21:08 10° 358° (N) 1,220 5.3 -12.8°
Maximum altitude 05:23:24 24° 56° (NE) 715 4.8 -12.3°
Drops below altitude 10° 05:25:43 10° 114° (ESE) 1,229 6.8 -11.7°
Sets 05:27:53 0° 128° (SE) 2,065 7.7 -11.2°
